[[{"header":{"parameterUnit":"m.s-1","parameterCategory":1,"la1":30.2991,"la2":30.254,"lo1":-89.0895,"lo2":-89.0444,"dy":0.0017,"dx":0.0017,"nx":28,"ny":28,"refTime":"2025-05-27T09:00:00:Z","depth":0,"parameterNumber":2,"parameterNumberName":"U-component_of_WINDS"},"data":[0,0,0,0,0,0,0,0,0,0,0,0,0,0,0,0,0,0,0,0,0,0,0,0,0,0,0,0,0,0,0,0,0,0,0,0,0,0,0,0,0,0,0,0,0,0,0,0,0,0,0,0,0,0,0,0,0,0,0.5764,0.5766,0,0.5927,0.5929,0.5931,0.5973,0.5972,0.5971,0.597,0.614,0.6145,0.615,0,0,0,0,0,0,0,0,0,0,0,0,0,0.549,0.5495,0.5764,0.5766,0.5768,0.5927,0.5929,0.5931,0.5973,0.5972,0.5971,0.597,0.6138,0.6144,0.6151,0,0,0,0,0,0,0,0,0,0,0,0,0,0.5627,0.5496,0.5763,0.5808,0.5813,0.5926,0.5929,0.5932,0.5973,0.5972,0.597,0.5969,0.6136,0.6144,0.6152,0.6233,0,0,0.6177,0.618,0,0,0,0,0,0,0,0,0.5619,0.5637,0.5799,0.5805,0.5811,0.5928,0.5895,0.6033,0.5974,0.5913,0.597,0.5968,0.6071,0.6084,0.6118,0.6241,0.6248,0.6177,0.6182,0.6186,0.6188,0,0,0,0,0,0,0,0.5609,0.563,0.5828,0.5802,0.5809,0.582,0.5838,0.5921,0.5998,0.5918,0.5921,0.594,0.6074,0.611,0.6122,0.625,0.6177,0.6184,0.6189,0.6193,0.6447,0.6449,0,0,0,0,0,0,0.5592,0.5622,0.5823,0.5833,0.5709,0.5826,0.5846,0.5892,0.5997,0.6012,0.5941,0.5941,0.6097,0.6113,0.6128,0.623,0.6186,0.6193,0.6198,0.6445,0.6448,0.645,0,0,0,0,0,0,0.5586,0.5609,0.5817,0.5729,0.5756,0.5833,0.5884,0.5896,0.5933,0.6015,0.6029,0.5964,0.6096,0.6117,0.6206,0.6237,0.6197,0.6205,0.6443,0.6446,0.6449,0.6434,0,0,0,0,0,0,0.5578,0.5607,0.5638,0.5729,0.576,0.5891,0.5886,0.5901,0.5946,0.5948,0.604,0.6054,0.6097,0.6194,0.6214,0.6247,0.6211,0.6441,0.6444,0.6448,0.6432,0.6436,0.6439,0,0,0,0,0,0.5568,0.5628,0.564,0.5664,0.5801,0.5893,0.5911,0.5958,0.5949,0.5981,0.6034,0.6051,0.623,0.6202,0.6226,0.6262,0.6439,0.6443,0.6447,0.643,0.6435,0.6439,0,0,0,0,0,0,0.554,0.5641,0.5655,0.5746,0.581,0.59,0.5942,0.5961,0.603,0.6029,0.6085,0.6106,0.6191,0.6236,0.6203,0.6345,0.6335,0.6344,0.6313,0.6319,0.6322,0.631,0.6218,0,0,0,0,0,0.5544,0.561,0.5695,0.5767,0.5799,0.5864,0.5906,0.5937,0.6006,0.6034,0.6093,0.616,0.6232,0.6278,0.6348,0.6438,0.6459,0.6474,0.6478,0.648,0.6488,0.6539,0.6547,0.6463,0.6463,0.6463,0,0,0.5554,0.5617,0.5656,0.5763,0.5817,0.5884,0.5887,0.5958,0.6009,0.6045,0.6133,0.6178,0.6257,0.6347,0.639,0.6387,0.6515,0.6486,0.6487,0.6493,0.6544,0.6552,0.6559,0.6466,0.6466,0.6465,0,0,0.5607,0.5661,0.5727,0.578,0.5861,0.5904,0.592,0.6006,0.6038,0.6126,0.6155,0.6216,0.6337,0.6392,0.6436,0.6508,0.6527,0.6529,0.6548,0.6597,0.6604,0.661,0.6636,0.6644,0.6536,0.6536,0.6536,0,0.5609,0.5711,0.5759,0.5828,0.5875,0.5909,0.5977,0.6027,0.6126,0.6158,0.6152,0.6305,0.6361,0.6464,0.6481,0.6516,0.6536,0.6519,0.6599,0.6605,0.6612,0.6637,0.6647,0.6536,0.6536,0.6536,0.6536,0,0.571,0.578,0.5824,0.5918,0.5969,0.6038,0.6096,0.6143,0.6168,0.6212,0.6302,0.6369,0.6454,0.648,0.6507,0.6587,0.6583,0.6587,0.6578,0.6619,0.6643,0.6653,0.6536,0.6536,0.6536,0.6536,0,0,0.575,0.5869,0.5884,0.5927,0.6019,0.6074,0.6144,0.6225,0.6264,0.6331,0.6391,0.6493,0.6497,0.6547,0.658,0.6623,0.6675,0.6622,0.6625,0.663,0.6768,0.6765,0.6775,0.6688,0.669,0.6692,0.6762,0,0.5814,0.5939,0.5984,0.6087,0.6153,0.6186,0.6247,0.6309,0.6352,0.6414,0.6462,0.6533,0.6533,0.6563,0.6607,0.6659,0.6704,0.6655,0.6745,0.6748,0.6724,0.6788,0.6785,0.6848,0.6772,0.6773,0.6775,0,0.5905,0.5973,0.6082,0.6165,0.6194,0.6248,0.6326,0.6385,0.6456,0.6484,0.6539,0.6568,0.6643,0.6628,0.6732,0.6697,0.6737,0.6768,0.6771,0.6782,0.6764,0.6801,0.6869,0.6878,0.679,0.6789,0.6788,0,0.5923,0.6042,0.6123,0.6159,0.6257,0.6294,0.6337,0.6407,0.6453,0.6521,0.6551,0.6628,0.667,0.6728,0.6778,0.6762,0.6877,0.6866,0.6903,0.6901,0.6926,0.6924,0.7002,0.695,0.695,0.695,0.695,0,0.599,0.6056,0.6132,0.6182,0.6257,0.6308,0.638,0.6425,0.6487,0.6546,0.658,0.6635,0.6697,0.676,0.6799,0.6879,0.6898,0.6923,0.6932,0.692,0.6917,0.6947,0.6944,0.6953,0.6952,0.6951,0.6951,0,0.6024,0.6077,0.6168,0.6253,0.6276,0.6327,0.6401,0.645,0.6494,0.6568,0.6589,0.6658,0.6734,0.6788,0.6887,0.6913,0.6999,0.7008,0.6974,0.6979,0.7013,0.7009,0.7113,0.7129,0.7067,0.7067,0.7068,0,0.6063,0.6114,0.6205,0.6247,0.6289,0.6356,0.6403,0.6455,0.6502,0.6587,0.6627,0.6705,0.677,0.689,0.6949,0.7024,0.7036,0.7067,0.7048,0.7033,0.7037,0.7033,0.7039,0.707,0.7071,0.7071,0.7071,0,0.6127,0.6151,0.6217,0.6292,0.6347,0.6409,0.6471,0.6504,0.6567,0.6618,0.6696,0.6746,0.6846,0.6923,0.7004,0.7048,0.7071,0.7077,0.7089,0.7078,0.7056,0.7068,0.6982,0.7075,0.7074,0.7074,0.7074,0.7074,0.6165,0.6212,0.6283,0.6356,0.6408,0.6465,0.6516,0.6565,0.6631,0.6715,0.6742,0.6822,0.6893,0.7003,0.7049,0.7113,0.7111,0.7129,0.7134,0.7138,0.7137,0.7045,0.7127,0.7127,0.7127,0.7127,0.7127,0,0.6231,0.6278,0.6344,0.643,0.6487,0.6502,0.6571,0.6618,0.6688,0.6751,0.6814,0.6903,0.6978,0.7042,0.712,0.7159,0.7171,0.7177,0.7175,0.7185,0.7134,0.7115,0.7166,0.7166,0.7166,0.7166,0.7166,0.7166,0.6272,0.6353,0.6385,0.6491,0.6538,0.6617,0.6655,0.6708,0.6759,0.6856,0.6918,0.6959,0.7023,0.7106,0.7175,0.7192,0.7219,0.7223,0.7243,0.7194,0.7189,0.7185,0.7168,0.7229,0.7229,0.7289,0.729,0.729]},{"header":{"parameterUnit":"m.s-1","parameterCategory":1,"la1":30.2991,"la2":30.254,"lo1":-89.0895,"lo2":-89.0444,"dy":0.0017,"dx":0.0017,"nx":28,"ny":28,"refTime":"2025-05-27T09:00:00:Z","depth":0,"parameterNumber":3,"parameterNumberName":"V-component_of_WINDS"},"data":[0,0,0,0,0,0,0,0,0,0,0,0,0,0,0,0,0,0,0,0,0,0,0,0,0,0,0,0,0,0,0,0,0,0,0,0,0,0,0,0,0,0,0,0,0,0,0,0,0,0,0,0,0,0,0,0,0,0,4.6347,4.6347,0,4.6302,4.6302,4.6301,4.6214,4.6213,4.6211,4.6209,4.6165,4.6166,4.6166,0,0,0,0,0,0,0,0,0,0,0,0,0,4.6361,4.6361,4.6347,4.6347,4.6346,4.6302,4.6302,4.6301,4.6215,4.6213,4.6211,4.6209,4.6165,4.6166,4.6166,0,0,0,0,0,0,0,0,0,0,0,0,0,4.634,4.6361,4.6347,4.6298,4.6293,4.6302,4.6302,4.6301,4.6215,4.6213,4.621,4.6208,4.6165,4.6166,4.6166,4.6221,0,0,4.6168,4.6168,0,0,0,0,0,0,0,0,4.6341,4.6339,4.6306,4.6301,4.6296,4.6261,4.629,4.6274,4.6216,4.6245,4.6209,4.6206,4.6199,4.6197,4.6194,4.6219,4.6217,4.6168,4.6169,4.6169,4.6169,0,0,0,0,0,0,0,4.6342,4.6341,4.6329,4.6305,4.6299,4.6278,4.6273,4.6287,4.6237,4.6242,4.6236,4.6231,4.6196,4.6194,4.6193,4.6216,4.6168,4.6169,4.6169,4.6169,4.6284,4.6287,0,0,0,0,0,0,4.6351,4.6342,4.6331,4.6328,4.6312,4.628,4.6274,4.6275,4.6237,4.6228,4.6234,4.6227,4.6194,4.6192,4.6191,4.6252,4.6169,4.6169,4.617,4.6281,4.6285,4.6288,0,0,0,0,0,0,4.6351,4.6351,4.6333,4.6333,4.633,4.6283,4.6285,4.6275,4.6273,4.623,4.6221,4.624,4.6192,4.619,4.6214,4.6249,4.617,4.617,4.6278,4.6282,4.6286,4.6376,0,0,0,0,0,0,4.6352,4.6351,4.6371,4.6334,4.633,4.6356,4.6287,4.6276,4.6274,4.6265,4.6234,4.6226,4.619,4.6214,4.6215,4.6249,4.6171,4.6275,4.628,4.6285,4.637,4.6382,4.6394,0,0,0,0,0,4.6353,4.6399,4.6373,4.6372,4.6353,4.6358,4.6356,4.6312,4.6277,4.6297,4.627,4.6227,4.6246,4.6217,4.6217,4.6252,4.6272,4.6279,4.6284,4.6364,4.638,4.6393,0,0,0,0,0,0,4.6441,4.6393,4.6363,4.6398,4.6383,4.6344,4.6367,4.633,4.6325,4.6318,4.6265,4.6259,4.629,4.6273,4.6242,4.6303,4.6252,4.6259,4.6313,4.6327,4.6339,4.6342,4.6171,0,0,0,0,0,4.6465,4.6472,4.643,4.6465,4.6458,4.6415,4.6415,4.6383,4.6365,4.6359,4.6333,4.6318,4.632,4.6323,4.6323,4.6367,4.6359,4.6391,4.6403,4.6413,4.6419,4.6442,4.6456,4.6307,4.6307,4.6307,0,0,4.6513,4.6488,4.6496,4.6482,4.6466,4.6476,4.641,4.6423,4.6429,4.6361,4.6382,4.6363,4.6343,4.6377,4.6391,4.6364,4.6459,4.6421,4.6429,4.643,4.6449,4.6464,4.6476,4.6311,4.6311,4.631,0,0,4.6607,4.6588,4.6615,4.6601,4.6578,4.6548,4.6555,4.6521,4.6506,4.6526,4.6475,4.6483,4.6488,4.6475,4.647,4.656,4.6521,4.6561,4.6624,4.6646,4.6658,4.6668,4.67,4.6712,4.6567,4.6568,4.6568,0,4.667,4.6681,4.6634,4.665,4.6645,4.6583,4.6611,4.66,4.6578,4.6577,4.6547,4.6552,4.6535,4.6565,4.6587,4.6585,4.6591,4.6564,4.666,4.6669,4.6678,4.6708,4.672,4.6573,4.6572,4.6572,4.6571,0,4.6761,4.677,4.6795,4.6775,4.6773,4.6795,4.6751,4.6756,4.6724,4.6698,4.672,4.6696,4.669,4.6695,4.6665,4.6722,4.6706,4.6669,4.6617,4.6698,4.6725,4.6737,4.658,4.6578,4.6577,4.6575,0,0,4.6908,4.6861,4.6871,4.6862,4.6832,4.6838,4.6858,4.6851,4.6856,4.6844,4.6859,4.6865,4.6831,4.6825,4.6792,4.6812,4.6885,4.6772,4.6771,4.6794,4.6947,4.6975,4.6989,4.6859,4.6861,4.6862,4.6948,0,4.6994,4.7024,4.6982,4.7021,4.7029,4.6971,4.6988,4.6972,4.6949,4.6952,4.6927,4.6932,4.6886,4.6882,4.6899,4.6872,4.6915,4.6865,4.6873,4.6874,4.6879,4.7003,4.7032,4.7114,4.6959,4.696,4.6962,0,4.7099,4.7091,4.7131,4.7099,4.7101,4.7117,4.7108,4.7112,4.7093,4.7075,4.7069,4.703,4.7048,4.6997,4.7021,4.6989,4.6989,4.6977,4.6979,4.6978,4.6923,4.7005,4.714,4.7152,4.6978,4.6977,4.6975,0,4.7202,4.7202,4.7225,4.7219,4.7183,4.7195,4.7181,4.7159,4.7158,4.7151,4.715,4.7145,4.7142,4.7139,4.7101,4.7068,4.713,4.7076,4.7115,4.7116,4.7131,4.713,4.7267,4.7132,4.7131,4.7131,4.7131,0,4.7303,4.733,4.7271,4.7286,4.7315,4.7267,4.7296,4.7276,4.7258,4.7268,4.7218,4.7229,4.7177,4.7183,4.7153,4.7177,4.7176,4.7162,4.7154,4.7167,4.7169,4.7166,4.716,4.7134,4.7134,4.7133,4.7133,0,4.7423,4.7385,4.7407,4.737,4.7362,4.7385,4.7354,4.7366,4.734,4.7354,4.7354,4.7313,4.7317,4.7278,4.7275,4.7255,4.7293,4.7275,4.73,4.7294,4.7335,4.7332,4.7476,4.7492,4.7346,4.7348,4.7349,0,4.7489,4.7509,4.7474,4.7477,4.7465,4.7471,4.7469,4.7423,4.7424,4.7405,4.742,4.742,4.7417,4.7426,4.7396,4.7394,4.7375,4.7426,4.7374,4.7387,4.7376,4.7375,4.7377,4.7436,4.7438,4.744,4.7441,0,4.7612,4.7592,4.7592,4.7585,4.7585,4.7577,4.7567,4.7572,4.7522,4.7526,4.7529,4.7527,4.7524,4.7525,4.7516,4.7502,4.7464,4.7457,4.7466,4.7479,4.7493,4.7486,4.7329,4.7454,4.7453,4.7452,4.7451,4.7451,4.7707,4.7722,4.77,4.7701,4.7688,4.768,4.769,4.7664,4.7666,4.7659,4.7632,4.7641,4.7622,4.7607,4.7596,4.7602,4.7578,4.7591,4.7594,4.7598,4.7606,4.7492,4.7601,4.76,4.76,4.76,4.7599,0,4.7827,4.781,4.7812,4.7799,4.78,4.7763,4.775,4.7754,4.7761,4.7747,4.7745,4.7749,4.775,4.772,4.7717,4.7728,4.7711,4.7729,4.7728,4.7725,4.7628,4.762,4.7743,4.7743,4.7743,4.7743,4.7743,4.7743,4.789,4.7912,4.789,4.7906,4.7889,4.7896,4.7892,4.7884,4.7872,4.7879,4.7879,4.7859,4.7839,4.7834,4.7833,4.7825,4.7826,4.7851,4.7836,4.7746,4.7732,4.7719,4.7711,4.7851,4.7851,4.7933,4.7934,4.7934]}]]